Regional Weather Roundup
Issued by NWS

Home | Current Version | Previous Version | Graphics & Text | Print | Product List | Glossary Off
Versions: 1 2 3 4 5 6 7 8 9 10 11 12 13 14 15 16 17 18 19 20 21 22 23 24 25 26 27 28 29 30 31 32 33 34 35 36 37 38 39 40 41 42 43 44 45 46 47 48 49 50

000
ASUS43 KMKX 240718
RWRWI

WISCONSIN REGIONAL WEATHER ROUNDUP
NATIONAL WEATHER SERVICE MILWAUKEE/SULLIVAN WI
200 AM CDT SUN MAY 24 2015

NOTE: "FAIR" INDICATES FEW OR NO CLOUDS BELOW 12,000 FEET WITH NO
SIGNIFICANT WEATHER AND/OR OBSTRUCTIONS TO VISIBILITY.

WIZ001-002-006>008-014>016-023>028-240800-
NORTHWEST WISCONSIN

CITY           SKY/WX    TMP DP  RH WIND       PRES   REMARKS
SUPERIOR ARPT  PTCLDY    50  43  77 CALM      30.14S
ASHLAND        PTCLDY    46  43  89 S3        30.15F
HAYWARD        CLOUDY    54  47  77 CALM      30.16F
SIREN          CLOUDY    57  51  81 CALM      30.15S
CUMBERLAND     LGT RAIN  55  50  82 NE3       30.15F
RICE LAKE      CLOUDY    57  53  86 CALM      30.17S
CHETEK         CLOUDY    59  51  74 CALM      30.16R
LADYSMITH      DRIZZLE   58  49  73 CALM      30.18S
EAU CLAIRE     MOCLDY    57  46  66 N3        30.13F
MENOMONIE      CLOUDY    60  46  59 CALM      30.13S
NEW RICHMOND   CLOUDY    60  48  65 CALM      30.14S
OSCEOLA        CLOUDY    60  51  72 SW9       30.17R
$$

WIZ003>005-009-010-017-018-240800-
NORTH CENTRAL WISCONSIN

CITY           SKY/WX    TMP DP  RH WIND       PRES   REMARKS
MANITOWISH WTR CLOUDY    52  48  84 CALM      30.16F
ARBOR VITAE    CLOUDY    57  47  69 CALM      30.17F
WOODRUFF       CLOUDY    57  47  69 CALM      30.17F
RHINELANDER    CLOUDY    57  48  72 CALM      30.18F
EAGLE RIVER    CLOUDY    57  43  59 CALM      30.17F
LAND O LAKES   CLOUDY    52  44  74 CALM      30.18F
PHILLIPS       CLOUDY    56  49  79 CALM      30.16F
TOMAHAWK       CLOUDY    53  47  81 CALM      30.18F
MEDFORD        CLOUDY    56  49  78 E3        30.17S
MERRILL        CLOUDY    56  50  82 CALM      30.17F
$$

WIZ029-030-035-036-043>047-240800-
CENTRAL WISCONSIN

CITY           SKY/WX    TMP DP  RH WIND       PRES   REMARKS
WAUSAU         CLOUDY    57  51  80 CALM      30.15F
MOSINEE        CLOUDY    59  43  55 E5        30.17F
MARSHFIELD     MOCLDY    59  46  62 NE3       30.16F
STEVENS POINT  CLOUDY    55  49  80 CALM      30.16F
WAUPACA        MOCLDY    58  51  75 CALM      30.16S
WAUTOMA        MOCLDY    53  50  90 CALM      30.17S
WISC RAPIDS    MOCLDY    57  45  64 CALM      30.17S
CAMP DOUGLAS   PTCLDY    49  49 100 E5        30.15R
$$

WIZ011>013-019>022-031-037>040-048>050-240800-
NORTHEAST WISCONSIN

CITY           SKY/WX    TMP DP  RH WIND       PRES   REMARKS
ANTIGO         CLOUDY    57  50  78 CALM      30.18F
SHAWANO        MOCLDY    56  46  68 CALM      30.16F
OCONTO         MOCLDY    53  47  82 CALM      30.16F
STURGEON BAY   MOCLDY    61  39  44 SW5       30.19F
GREEN BAY      PTCLDY    60  43  53 S8        30.16F
MANITOWOC      CLEAR     49  45  86 E3        30.18F
APPLETON       PTCLDY    59  45  58 S5        30.16F
CLINTONVILLE   PTCLDY    55  46  71 CALM      30.15F
OSHKOSH        PTCLDY    54  43  66 S6        30.15F
$$

WIZ032>034-041-042-053>061-240800-
SOUTHWEST WISCONSIN

CITY           SKY/WX    TMP DP  RH WIND       PRES   REMARKS
LA CROSSE      FAIR      60  49  66 SE7       30.13R
SPARTA         MOCLDY    50  48  94 CALM      30.15R
VIROQUA        FAIR      60  45  55 SE7       30.15S
BOSCOBEL       PTCLDY    53  49  86 CALM      30.15S
PRAIRIE DU CHI PTCLDY    56  49  75 E3        30.14R
PLATTEVILLE    MOCLDY    61  49  62 E7        30.15S
$$

WIZ056-057-062-063-064-067-068-240800-
SOUTH CENTRAL WISCONSIN

CITY           SKY/WX    TMP DP  RH WIND       PRES   REMARKS
REEDSBURG      CLEAR     52  49  90 CALM      30.15R
BARABOO/DELLS  CLEAR     53  44  72 CALM      30.15S
LONE ROCK      MOCLDY    55  49  80 CALM      30.15S
MINERAL POINT  PTCLDY    63  43  48 SE5       30.16S
MADISON        PTCLDY    53  47  79 CALM      30.16S
MIDDLETON      PTCLDY    53  46  75 CALM      30.17R
WATERTOWN      CLEAR     55  45  70 E3        30.16S
MONROE         PTCLDY    61  46  59 S7        30.16S
JANESVILLE     MOCLDY    57  45  62 CALM      30.16S
$$

WIZ051-052-058>065-066-070>072-240800-
SOUTHEAST WISCONSIN

CITY           SKY/WX    TMP DP  RH WIND       PRES   REMARKS
MILWAUKEE      PTCLDY    56  39  53 S3        30.17F
WAUKESHA       CLEAR     54  39  58 CALM      30.18F
MILWAUKEE/TIMM CLEAR     54  41  62 CALM      30.18F
RACINE         CLEAR     54  41  61 CALM      30.19F
BURLINGTON     CLEAR     49  45  85 CALM      30.18S
KENOSHA        CLEAR     54  42  64 SW5       30.18F
FOND DU LAC    PTCLDY    55  42  61 S5        30.16F
SHEBOYGAN      CLEAR     52  39  61 CALM      30.18F
WEST BEND      CLEAR     46  43  87 CALM      30.18F
JUNEAU         CLEAR     55  44  66 SE3       30.18S
$$

LSZ147-162-240800-
LAKE SUPERIOR

STATION/POSITION TIME  TEMP    WIND        PRES    WAVE
                       AIR SEA DIR/SP/G            HT/PER
                 (UTC) (F)     (DEG/KT/KT) (MB)    (FT/S)
W MID LAKE BUOY  0650   46 36  230/ 12/ 12   N/A     1/ 3
DEVILS ISLAND    0700   56     240/ 13/ 14   N/A
PORT WING        0600   57     160/  6/  7   N/A
SAXON HARBOR     0600   52     200/  5/  7   N/A
$$

LMZ867-665-643>646-240800-
LAKE MICHIGAN

STATION/POSITION TIME  TEMP    WIND        PRES    WAVE
                       AIR SEA DIR/SP/G            HT/PER
                 (UTC) (F)     (DEG/KT/KT) (MB)    (FT/S)
CHAMBERS ISLAND  0600   63     180/  4/  9   N/A
N MID LAKE BUOY  0650   42 36  230/  6/  8   N/A     2/ 4
NORTHPORT PIER   0600   64     220/  3/  9   N/A
SISTER BAY       0618   63        CALM       N/A
KEWAUNEE LAKESHO 0600   52     180/  4/  6   N/A
SHEBOYGAN LAKESH 0700   55     180/  5/  5   N/A
PORT WASHINGTON  0600   52        CALM       N/A
ATWATER BUOY     0600   48 45   60/  2/  2   N/A
MILWAUKEE LAKESH 0600   52      40/  4/  4   N/A
S MID LAKE BUOY  0650   47 38  160/  8/  8   N/A
KENOSHA   LAKESH 0700   54     170/  6/  6   N/A
$$

TC  - TEMPERATURE IN CELSIUS
VSB - VISIBILITY IN STATUTE MILES
WCI - WIND CHILL INDEX
HX  - HEAT INDEX




USA.gov is the U.S. government's official web portal to all federal, state and local government web resources and services.